Temp
-9 -9 -9 -9 -9 -8 -8 -8 -7 -7 -6 -6 -6 -5 -5 -5 -5 -6 -6 -6 -7 -7 -7 -8 -8 -8 -7 -7 -7 -7 -7 -7 -7 -7 -7 -7 -7 -7 -7 -7 -6 -6 -6 -6 -6
-10 -9 -10 -10 -9 -9 -8 -8 -7 -7 -7 -6 -6 -5 -5 -5 -5 -6 -6 -6 -6 -6 -7 -7 -8 -8 -7 -7 -7 -7 -7 -7 -7 -7 -7 -7 -7 -7 -7 -7 -7 -7 -7 -7 -7
-10 -10 -10 -10 -10 -9 -9 -8 -7 -7 -7 -6 -6 -6 -5 -6 -6 -6 -6 -6 -6 -6 -6 -7 -8 -7 -7 -7 -7 -7 -7 -6 -7 -7 -7 -7 -8 -7 -7 -7 -7 -7 -7 -7 -7
-10 -10 -10 -10 -10 -9 -9 -8 -8 -7 -7 -7 -6 -6 -6 -6 -6 -6 -6 -5 -6 -6 -6 -6 -7 -7 -7 -7 -8 -7 -7 -6 -7 -7 -7 -7 -8 -8 -8 -8 -8 -7 -7 -7 -8
-10 -10 -10 -10 -10 -9 -9 -9 -8 -7 -7 -7 -7 -6 -6 -6 -6 -6 -6 -6 -6 -6 -6 -6 -6 -6 -7 -8 -7 -7 -7 -6 -7 -7 -7 -7 -8 -8 -8 -8 -8 -8 -8 -8 -7
-10 -10 -10 -10 -10 -9 -9 -9 -8 -8 -7 -7 -7 -7 -7 -6 -6 -6 -6 -6 -6 -6 -6 -6 -6 -6 -7 -7 -8 -7 -7 -6 -6 -7 -7 -7 -7 -8 -9 -8 -8 -8 -8 -8 -7
-10 -10 -10 -10 -10 -10 -9 -9 -8 -8 -8 -7 -7 -7 -7 -7 -6 -6 -6 -6 -6 -6 -6 -6 -6 -6 -7 -8 -8 -8 -7 -7 -6 -7 -7 -7 -7 -8 -8 -8 -8 -8 -8 -8 -8
-10 -10 -10 -10 -10 -10 -9 -9 -9 -8 -8 -8 -7 -7 -7 -7 -7 -6 -6 -6 -6 -6 -6 -5 -6 -6 -6 -7 -8 -8 -7 -7 -7 -7 -7 -7 -7 -8 -8 -8 -8 -8 -8 -8 -8
-10 -10 -10 -10 -10 -10 -10 -9 -9 -9 -8 -8 -8 -7 -7 -7 -7 -7 -7 -6 -6 -6 -6 -6 -6 -6 -6 -7 -7 -8 -7 -7 -7 -6 -7 -7 -7 -7 -7 -8 -8 -8 -8 -8 -8
-10 -10 -10 -10 -10 -9 -9 -9 -9 -9 -9 -8 -8 -8 -7 -7 -7 -7 -7 -7 -7 -6 -6 -6 -6 -6 -6 -7 -7 -7 -7 -7 -7 -7 -6 -7 -7 -7 -7 -8 -8 -8 -8 -8 -8
-10 -10 -10 -10 -9 -9 -9 -9 -9 -9 -9 -8 -8 -8 -8 -8 -7 -7 -7 -7 -7 -6 -6 -6 -6 -6 -6 -6 -6 -7 -7 -8 -7 -7 -7 -7 -7 -7 -7 -8 -8 -8 -8 -8 -8
-10 -10 -10 -10 -10 -9 -9 -9 -9 -9 -9 -9 -8 -8 -8 -7 -7 -7 -7 -7 -7 -7 -6 -6 -6 -6 -6 -6 -6 -6 -7 -8 -7 -7 -7 -7 -7 -7 -8 -8 -8 -8 -8 -8 -8
-11 -10 -10 -10 -10 -10 -9 -9 -9 -9 -9 -9 -9 -8 -8 -8 -8 -7 -7 -7 -7 -7 -7 -7 -7 -6 -6 -6 -6 -7 -7 -7 -8 -8 -7 -7 -7 -7 -7 -8 -7 -7 -7 -7 -8
-11 -11 -10 -10 -10 -10 -10 -9 -9 -9 -9 -9 -9 -8 -8 -8 -8 -8 -7 -7 -7 -7 -7 -7 -6 -6 -6 -6 -6 -7 -7 -7 -8 -8 -8 -7 -7 -7 -7 -7 -7 -7 -7 -7 -7
-11 -11 -10 -10 -10 -10 -10 -10 -9 -9 -9 -9 -9 -8 -8 -8 -8 -8 -8 -7 -7 -7 -7 -7 -6 -6 -6 -6 -7 -7 -7 -8 -8 -8 -8 -7 -7 -7 -7 -7 -7 -7 -7 -7 -8
-11 -11 -11 -10 -10 -10 -10 -9 -9 -9 -9 -9 -9 -8 -8 -8 -8 -8 -8 -7 -7 -7 -7 -7 -7 -7 -7 -6 -7 -7 -7 -8 -8 -8 -7 -7 -7 -7 -7 -7 -7 -8 -8 -8 -7
-11 -11 -11 -10 -10 -10 -10 -9 -9 -9 -9 -9 -9 -9 -8 -8 -8 -8 -8 -8 -7 -7 -7 -7 -7 -7 -7 -7 -7 -7 -7 -8 -7 -7 -7 -7 -7 -7 -7 -7 -8 -8 -8 -8 -8
-12 -11 -11 -11 -11 -10 -10 -10 -9 -9 -9 -9 -9 -9 -9 -8 -8 -8 -8 -8 -7 -7 -8 -7 -7 -7 -7 -7 -7 -8 -8 -8 -7 -7 -7 -7 -7 -7 -7 -7 -7 -7 -8 -8 -8
-12 -12 -11 -11 -11 -11 -10 -10 -10 -10 -10 -10 -10 -9 -9 -9 -9 -8 -8 -8 -8 -8 -8 -8 -8 -8 -8 -8 -8 -8 -8 -8 -8 -7 -7 -7 -7 -7 -7 -7 -7 -8 -8 -8 -8
-12 -12 -12 -11 -11 -11 -11 -11 -10 -10 -10 -10 -10 -10 -10 -9 -9 -9 -9 -8 -8 -8 -8 -8 -8 -8 -8 -8 -8 -8 -8 -8 -8 -8 -7 -8 -7 -7 -8 -8 -8 -8 -8 -8 -9
-12 -11 -11 -11 -11 -11 -11 -11 -11 -11 -10 -10 -10 -10 -10 -10 -9 -9 -9 -8 -8 -8 -8 -8 -8 -8 -8 -8 -8 -8 -8 -9 -8 -8 -8 -8 -8 -8 -8 -8 -8 -8 -8 -8 -10
-12 -12 -12 -11 -11 -11 -11 -11 -11 -11 -11 -10 -11 -11 -11 -10 -10 -9 -9 -9 -9 -9 -8 -8 -8 -9 -8 -8 -8 -8 -8 -9 -9 -8 -8 -8 -8 -8 -8 -8 -7 -8 -8 -9 -10
-12 -12 -12 -12 -12 -11 -11 -11 -11 -11 -11 -11 -11 -11 -11 -11 -11 -10 -10 -9 -9 -9 -9 -9 -8 -8 -8 -8 -8 -8 -8 -9 -9 -9 -9 -8 -9 -9 -9 -8 -8 -8 -9 -9 -10
-12 -12 -12 -12 -12 -12 -12 -12 -12 -11 -11 -11 -11 -11 -11 -11 -11 -11 -10 -10 -9 -9 -9 -9 -8 -9 -9 -9 -9 -9 -9 -9 -10 -9 -9 -9 -9 -9 -9 -9 -9 -9 -9 -10 -10
-12 -12 -12 -12 -13 -13 -13 -12 -12 -12 -11 -11 -12 -11 -11 -11 -11 -11 -11 -10 -10 -10 -10 -9 -9 -9 -9 -10 -10 -10 -10 -10 -10 -10 -10 -10 -10 -10 -9 -9 -9 -9 -9 -10 -10
-13 -13 -13 -13 -13 -13 -13 -13 -13 -12 -12 -12 -12 -12 -11 -11 -12 -11 -11 -11 -10 -10 -10 -10 -10 -9 -10 -10 -10 -10 -10 -10 -10 -10 -10 -10 -10 -10 -9 -9 -9 -9 -9 -9 -10
-14 -14 -14 -14 -14 -14 -14 -13 -13 -13 -13 -12 -12 -12 -12 -12 -12 -12 -12 -11 -11 -10 -10 -10 -10 -10 -10 -10 -10 -10 -10 -10 -10 -10 -10 -10 -10 -10 -10 -9 -9 -9 -9 -9 -9
Height
5892 5894 5896 5897 5899 5900 5902 5903 5905 5907 5908 5911 5913 5914 5915 5915 5917 5918 5921 5925 5926 5928 5930 5932 5933 5933 5935 5936 5937 5939 5941 5941 5939 5937 5938 5936 5934 5932 5930 5930 5929 5928 5926 5923 5920
5889 5891 5892 5894 5896 5898 5900 5902 5904 5905 5906 5909 5911 5912 5913 5914 5917 5918 5920 5922 5924 5926 5929 5932 5934 5935 5937 5937 5938 5938 5942 5942 5940 5939 5939 5937 5936 5935 5933 5933 5931 5930 5929 5926 5923
5885 5888 5889 5892 5893 5895 5898 5900 5902 5903 5904 5906 5908 5910 5912 5914 5916 5918 5919 5921 5923 5925 5927 5931 5933 5936 5938 5939 5939 5940 5942 5943 5941 5940 5939 5938 5938 5937 5936 5935 5933 5932 5930 5927 5924
5881 5885 5887 5889 5890 5893 5896 5898 5899 5901 5902 5904 5905 5908 5910 5913 5916 5917 5918 5920 5922 5925 5926 5930 5933 5935 5938 5939 5940 5941 5943 5944 5943 5942 5940 5939 5939 5938 5939 5937 5936 5934 5931 5928 5925
5878 5881 5883 5885 5888 5890 5893 5895 5897 5899 5900 5902 5903 5906 5909 5911 5913 5915 5917 5919 5921 5923 5927 5930 5932 5935 5937 5938 5940 5940 5942 5944 5944 5943 5942 5941 5940 5940 5939 5939 5938 5935 5933 5929 5927
5873 5876 5879 5881 5884 5886 5889 5892 5894 5896 5898 5900 5902 5904 5907 5910 5911 5913 5915 5917 5920 5922 5926 5929 5931 5934 5936 5938 5940 5940 5941 5943 5943 5943 5943 5942 5942 5941 5940 5940 5938 5936 5934 5930 5928
5868 5872 5875 5877 5880 5882 5885 5889 5891 5893 5896 5898 5900 5902 5905 5908 5910 5911 5913 5916 5918 5921 5925 5928 5930 5933 5935 5937 5939 5940 5941 5941 5943 5943 5944 5942 5942 5942 5941 5940 5938 5936 5934 5932 5929
5864 5868 5870 5873 5876 5878 5882 5885 5888 5890 5893 5896 5898 5900 5902 5905 5907 5910 5911 5914 5916 5919 5923 5927 5929 5932 5934 5936 5936 5937 5939 5941 5942 5943 5944 5943 5943 5942 5941 5941 5939 5937 5934 5932 5930
5859 5862 5865 5869 5872 5874 5877 5881 5885 5888 5890 5892 5895 5898 5900 5902 5905 5907 5910 5912 5914 5917 5920 5924 5928 5930 5932 5934 5935 5935 5937 5939 5940 5941 5942 5943 5942 5943 5942 5940 5939 5938 5935 5932 5929
5853 5857 5860 5864 5867 5870 5874 5877 5881 5884 5887 5889 5892 5896 5897 5900 5901 5904 5907 5910 5913 5915 5918 5921 5925 5928 5929 5930 5933 5933 5936 5937 5938 5940 5941 5941 5941 5941 5942 5941 5940 5938 5935 5931 5928
5847 5851 5855 5858 5861 5866 5870 5873 5878 5881 5883 5885 5888 5891 5893 5896 5898 5901 5904 5907 5911 5913 5916 5919 5922 5924 5925 5928 5929 5931 5933 5935 5936 5938 5938 5939 5939 5940 5940 5939 5939 5938 5935 5931 5927
5840 5844 5849 5853 5856 5861 5865 5868 5872 5876 5878 5881 5885 5887 5889 5892 5895 5898 5901 5905 5907 5911 5913 5917 5919 5921 5923 5925 5927 5930 5931 5933 5934 5936 5938 5938 5937 5938 5938 5937 5937 5936 5934 5929 5926
5833 5837 5842 5847 5850 5855 5859 5863 5866 5870 5875 5878 5881 5883 5886 5889 5891 5895 5899 5902 5905 5908 5911 5913 5915 5917 5920 5923 5926 5927 5929 5930 5932 5933 5934 5936 5936 5936 5935 5934 5934 5933 5931 5928 5924
5826 5830 5835 5840 5845 5848 5853 5857 5861 5866 5870 5875 5876 5879 5882 5884 5888 5891 5894 5899 5902 5904 5907 5910 5912 5914 5918 5921 5923 5924 5927 5929 5929 5932 5932 5933 5935 5933 5932 5931 5930 5929 5928 5927 5923
5819 5823 5827 5833 5837 5842 5848 5850 5854 5861 5865 5870 5871 5875 5877 5882 5884 5887 5890 5894 5897 5901 5905 5908 5910 5912 5915 5918 5920 5922 5924 5926 5926 5928 5930 5930 5930 5930 5930 5929 5928 5927 5927 5925 5922
5812 5816 5821 5826 5830 5835 5840 5844 5849 5855 5858 5862 5866 5869 5874 5877 5879 5883 5886 5890 5893 5897 5900 5903 5907 5909 5911 5914 5917 5918 5920 5923 5923 5924 5926 5925 5926 5926 5926 5927 5927 5925 5924 5922 5920
5806 5810 5815 5819 5824 5828 5832 5837 5842 5845 5853 5856 5861 5865 5869 5873 5875 5878 5882 5886 5889 5894 5897 5900 5903 5905 5907 5911 5914 5915 5917 5918 5921 5921 5921 5921 5922 5923 5923 5923 5923 5922 5920 5919 5917
5801 5805 5809 5813 5818 5821 5825 5830 5833 5841 5846 5850 5855 5860 5864 5868 5871 5873 5877 5881 5885 5889 5892 5895 5899 5902 5904 5908 5910 5911 5912 5914 5915 5916 5917 5917 5918 5919 5918 5919 5920 5919 5918 5915 5913
5796 5800 5804 5808 5812 5815 5820 5823 5829 5833 5838 5843 5849 5853 5857 5861 5865 5867 5872 5877 5880 5884 5889 5891 5894 5897 5900 5902 5905 5907 5908 5910 5910 5911 5913 5914 5915 5915 5915 5916 5916 5915 5915 5912 5910
5791 5795 5799 5803 5806 5810 5814 5819 5823 5826 5830 5835 5841 5845 5850 5855 5859 5861 5866 5873 5876 5880 5883 5886 5889 5892 5894 5897 5900 5902 5905 5906 5906 5909 5910 5910 5911 5911 5912 5915 5913 5912 5911 5909 5906
5784 5788 5793 5797 5800 5804 5808 5813 5816 5821 5823 5827 5832 5838 5843 5847 5851 5855 5861 5868 5871 5874 5877 5881 5885 5888 5890 5892 5894 5898 5900 5901 5904 5906 5906 5907 5908 5907 5909 5911 5910 5908 5906 5904 5901
5778 5782 5785 5789 5794 5798 5802 5806 5810 5814 5817 5820 5824 5830 5835 5840 5845 5850 5856 5861 5865 5869 5872 5877 5879 5882 5885 5887 5890 5893 5896 5897 5899 5902 5903 5903 5905 5905 5906 5906 5906 5904 5902 5900 5898
5772 5776 5779 5782 5785 5789 5794 5800 5804 5808 5811 5814 5818 5823 5828 5834 5841 5844 5850 5855 5860 5864 5867 5871 5874 5877 5880 5883 5885 5888 5892 5893 5896 5897 5899 5901 5902 5902 5902 5902 5902 5901 5898 5896 5895
5766 5769 5772 5775 5778 5783 5787 5791 5796 5800 5803 5807 5812 5816 5822 5827 5832 5838 5843 5848 5854 5858 5861 5864 5868 5873 5876 5879 5881 5884 5888 5890 5892 5894 5895 5897 5897 5898 5898 5898 5898 5897 5895 5893 5891
5758 5761 5764 5768 5772 5775 5780 5784 5787 5791 5796 5800 5805 5810 5815 5821 5825 5832 5837 5842 5847 5852 5854 5858 5862 5868 5871 5873 5876 5879 5883 5886 5888 5890 5892 5893 5894 5894 5894 5893 5893 5892 5890 5888 5886
5751 5754 5757 5760 5763 5768 5772 5777 5780 5783 5788 5792 5799 5803 5807 5814 5819 5825 5831 5835 5841 5846 5849 5852 5857 5862 5865 5869 5871 5874 5877 5880 5882 5885 5887 5888 5889 5889 5889 5889 5889 5888 5887 5884 5880
5744 5746 5748 5751 5754 5759 5764 5769 5772 5776 5780 5783 5790 5796 5800 5806 5812 5818 5824 5829 5835 5840 5844 5848 5852 5856 5859 5863 5867 5869 5872 5875 5878 5880 5882 5884 5884 5883 5883 5883 5883 5881 5880 5879 5875
Wind_Speed
22 21 20 17 17 13 9 8 9 7 8 12 12 12 9 6 6 8 10 11 14 16 13 12 11 5 3 4 1 5 7 8 10 14 15 19 22 24 26 26 25 26 24 24 25
25 22 19 19 17 11 10 11 11 10 10 12 13 13 10 7 7 8 9 11 12 16 14 13 14 11 6 7 5 5 6 8 11 13 14 18 21 23 24 23 25 24 23 23 22
25 21 20 19 17 13 12 12 11 12 11 13 14 14 12 10 9 8 9 9 10 12 14 14 16 13 11 6 4 5 5 7 10 14 15 19 20 22 22 23 23 22 23 23 23
25 24 22 22 19 15 16 14 12 11 11 11 12 14 13 12 10 10 10 10 9 11 13 11 15 9 8 8 4 5 4 6 9 13 12 15 17 20 20 20 20 20 20 23 26
26 25 25 24 22 18 18 15 15 11 11 11 12 13 14 13 12 11 11 11 11 11 10 10 13 11 10 6 2 5 2 7 8 10 11 12 16 17 17 17 17 19 21 23 24
28 27 27 24 23 20 20 17 16 15 12 11 12 13 15 14 13 11 11 11 12 12 11 12 12 12 13 10 4 1 3 7 9 8 9 10 13 15 12 11 15 14 21 22 22
32 30 27 24 21 19 22 18 16 18 16 13 12 13 14 14 14 13 12 12 14 13 12 15 13 14 11 13 7 2 7 9 8 9 8 9 10 11 11 7 12 12 16 19 20
33 33 30 27 24 22 21 19 16 16 17 16 13 13 16 15 14 14 13 13 14 15 13 14 13 12 13 12 11 6 9 12 11 8 4 3 5 10 9 6 9 11 12 18 22
31 31 30 29 27 24 22 23 21 19 16 16 15 15 16 17 16 15 14 13 14 15 15 14 13 13 14 14 15 16 11 11 12 9 5 1 3 2 5 2 2 9 13 17 21
33 31 30 29 28 27 25 25 24 25 22 19 18 17 16 17 18 17 15 14 13 14 15 16 14 13 15 16 17 18 14 11 11 8 8 7 7 8 4 8 7 10 15 20 23
34 33 31 29 29 28 27 27 25 24 26 25 20 19 17 18 20 20 18 17 15 14 13 12 11 14 16 16 17 17 14 14 12 8 9 9 9 6 5 10 9 11 15 20 22
36 35 34 33 33 29 27 27 27 26 24 25 23 20 19 19 21 22 22 20 18 17 14 13 13 16 17 16 16 15 16 16 15 12 9 12 10 8 8 10 11 12 16 21 23
36 35 34 34 35 33 30 28 27 26 25 25 24 23 23 21 21 23 23 22 20 18 16 15 17 19 19 16 12 16 17 17 18 15 15 13 12 11 9 12 17 15 15 20 22
37 36 36 36 35 34 33 33 32 27 26 27 27 24 23 21 21 21 23 23 23 22 20 20 20 20 18 17 16 17 17 20 22 20 21 18 14 13 15 18 21 17 16 12 12
35 35 35 34 35 34 32 34 35 34 30 29 30 26 23 21 21 21 22 23 24 24 22 22 21 20 18 19 19 21 21 22 26 23 21 23 21 18 16 19 19 12 11 16 14
32 34 33 33 34 33 32 34 33 35 36 33 31 30 27 23 24 22 22 24 25 23 23 23 21 20 20 20 20 22 23 25 28 29 25 19 18 20 20 18 17 15 13 17 18
26 29 30 31 31 32 33 34 34 35 32 36 32 31 30 28 25 26 24 23 24 23 23 24 21 21 22 20 18 20 20 21 23 23 23 20 17 17 16 15 14 12 16 17 17
23 25 25 27 27 28 30 32 35 32 33 34 35 32 30 30 29 28 29 27 24 24 23 23 23 23 21 17 17 16 17 18 20 18 17 19 17 15 17 15 12 13 15 18 20
24 23 23 23 25 27 28 29 26 31 34 36 34 33 33 31 31 30 30 29 28 24 22 22 23 23 22 20 21 20 19 20 21 22 19 18 16 17 16 12 12 13 14 16 17
26 24 25 25 25 27 27 23 23 24 29 35 36 36 33 34 32 33 30 28 28 27 26 24 23 22 22 22 23 22 21 20 19 17 17 15 16 15 12 9 11 12 16 16 16
29 29 27 26 27 29 25 23 23 21 23 33 39 38 36 35 36 34 30 28 29 29 29 26 23 24 25 25 24 24 23 22 19 19 19 14 14 15 12 8 9 13 15 14 15
23 27 30 31 31 29 28 24 25 23 22 29 39 40 40 37 35 35 31 28 28 30 30 26 25 24 27 27 25 23 23 19 22 19 19 15 14 12 8 6 9 10 15 13 13
27 26 27 30 32 33 31 29 25 26 23 27 36 41 41 39 34 34 31 32 30 28 29 29 29 27 27 28 24 24 23 26 23 20 16 14 11 6 5 5 9 11 12 11 12
28 29 29 30 31 31 29 29 28 30 28 28 29 35 40 40 38 36 33 32 29 28 30 31 31 28 29 28 23 21 20 25 25 19 14 13 10 6 6 8 11 10 14 15 19
23 24 27 32 30 30 30 30 31 33 33 31 30 27 35 40 41 37 35 32 28 24 30 33 31 28 29 31 28 25 26 29 28 22 17 16 12 11 8 11 14 14 18 20 23
17 22 26 29 29 30 30 32 33 34 34 34 32 31 31 37 40 39 36 33 30 23 28 29 28 27 28 36 32 30 30 30 29 26 22 19 20 19 18 18 18 18 19 21 22
10 14 19 23 25 27 30 32 35 35 36 37 35 31 32 36 39 37 36 33 32 29 29 31 28 29 28 31 36 36 32 30 27 23 25 19 20 23 26 22 18 20 20 23 26
Wind_Direction
228 234 245 252 260 258 238 240 231 237 211 213 229 251 251 240 234 222 222 195 205 214 208 179 204 240 152 94 111 131 93 91 93 72 63 59 55 51 49 47 43 41 39 43 43
229 236 243 249 254 247 235 231 231 237 231 228 231 238 247 237 209 204 205 201 199 213 207 183 192 213 219 198 197 207 166 112 102 95 77 67 59 57 53 49 44 39 40 39 40
235 235 241 247 249 236 235 226 232 233 236 234 231 237 237 232 213 201 199 201 196 200 202 186 199 205 186 177 229 225 170 112 107 108 82 75 61 55 51 45 41 37 42 42 40
230 235 238 241 247 239 227 231 240 238 235 234 234 231 234 230 217 211 208 205 189 188 200 190 203 199 189 176 208 240 181 127 111 112 91 83 69 53 47 47 43 39 43 42 38
226 232 233 240 245 239 227 229 234 243 238 233 230 232 233 229 221 216 210 202 197 186 178 172 189 178 178 188 191 278 251 147 119 123 115 82 74 62 42 43 50 45 42 35 32
226 230 235 240 244 236 222 225 230 234 246 243 232 230 231 226 224 221 215 206 201 194 161 160 164 165 157 149 162 200 203 169 153 133 136 100 81 66 56 27 37 38 30 25 27
226 227 236 240 237 234 217 219 222 230 236 245 238 231 230 224 222 223 217 209 204 200 178 163 167 168 167 151 156 221 205 204 169 143 144 111 78 58 65 38 22 22 13 12 7
229 230 233 237 236 232 224 215 219 223 228 236 246 237 232 227 221 222 220 214 207 200 197 180 180 183 190 187 183 233 188 189 172 171 160 135 72 63 70 62 29 14 2 2 356
232 233 234 235 236 233 233 224 222 229 228 234 241 239 231 228 218 216 218 218 211 204 204 202 191 199 213 215 212 212 205 190 197 202 207 241 303 10 54 77 4 354 343 351 351
233 233 234 236 236 235 233 235 231 235 235 233 239 237 232 222 220 215 213 219 215 207 212 217 202 215 217 218 223 226 201 212 209 200 230 250 271 277 36 24 338 340 342 340 344
234 234 234 234 235 236 235 235 231 232 234 229 233 234 232 225 220 218 215 216 221 218 212 217 211 211 218 219 228 230 211 221 240 233 252 265 277 290 354 11 8 359 336 328 333
232 234 234 234 234 233 234 234 233 231 231 226 228 236 236 231 222 217 218 216 218 224 219 214 213 221 226 225 230 236 233 233 248 244 266 307 282 292 327 329 333 332 323 316 318
231 234 235 236 237 235 234 234 234 233 226 226 228 236 230 228 223 218 218 218 217 221 221 218 221 228 234 241 239 238 241 245 246 258 279 303 308 295 309 298 323 314 317 306 306
232 233 233 234 237 235 234 235 234 233 229 227 225 230 227 224 223 218 220 219 219 216 214 215 222 233 240 246 244 244 244 248 248 260 275 290 292 290 301 310 321 332 322 340 336
232 233 233 233 235 234 232 233 232 230 231 226 227 226 229 224 223 218 218 219 217 219 216 220 225 233 236 244 250 249 242 243 250 257 272 284 288 286 291 301 315 321 303 314 341
231 233 233 234 235 233 230 231 232 229 228 229 224 227 227 227 226 227 221 219 221 219 223 226 225 230 234 238 242 249 248 243 254 265 271 276 270 277 288 293 294 296 300 316 330
230 232 232 234 235 234 232 231 231 228 225 228 227 224 226 226 228 227 225 223 226 222 223 228 224 226 232 237 240 248 252 253 255 261 262 263 271 278 282 282 288 292 306 317 323
230 230 229 230 229 230 231 230 230 229 226 227 225 224 226 225 228 229 226 223 225 223 219 225 226 227 229 234 231 237 244 259 260 258 254 262 270 277 280 284 290 304 319 317 318
232 231 227 226 227 229 231 233 234 230 226 225 224 223 223 225 227 229 231 229 225 224 224 227 232 232 229 224 226 232 244 257 263 262 258 260 265 268 275 296 323 325 316 309 317
230 232 230 230 229 230 232 232 231 234 227 223 221 222 221 224 226 230 230 228 231 226 223 219 224 231 235 232 232 233 242 248 256 260 261 257 258 266 276 309 320 317 308 310 313
227 227 229 231 232 234 235 233 232 234 230 221 220 220 219 221 223 228 227 225 227 227 226 225 222 228 234 236 235 231 237 241 252 260 259 256 265 277 296 322 327 322 330 328 322
234 231 227 228 231 235 233 233 230 231 233 224 220 219 219 220 223 226 227 222 224 227 231 226 224 224 231 236 241 242 235 233 246 255 265 267 269 282 310 332 326 327 349 336 328
239 236 233 230 228 228 230 233 234 231 234 230 222 220 220 221 221 225 226 224 222 227 231 232 232 226 227 236 237 247 233 235 248 254 259 262 267 281 310 317 323 340 343 325 314
240 238 237 236 233 232 228 224 227 225 228 234 230 225 223 223 221 222 227 227 227 226 228 232 232 233 237 235 234 238 230 236 245 254 259 257 256 267 311 305 315 326 326 323 313
240 242 240 238 237 235 230 224 220 221 225 229 231 233 225 225 228 223 224 226 225 230 227 230 236 233 223 217 220 220 222 232 238 244 249 256 259 268 286 294 301 312 310 313 310
239 240 242 244 239 235 233 227 222 219 222 224 226 233 231 223 228 231 225 226 224 223 224 229 230 229 223 212 222 223 224 230 240 250 250 263 274 280 288 296 292 297 297 303 303
249 246 243 241 242 236 233 230 227 222 219 223 224 229 232 227 221 226 229 227 222 222 223 225 224 224 229 218 218 229 230 236 243 248 254 258 270 285 290 290 282 283 292 300 304